User: anonymous   Login
Location: Prairie State College
(41.5244°N, 87.6382°W)
Time: 07:52:45
(UTC-05:00)
Language:

Cosmos 1140 Rocket - Orbit

View from above orbital plane
View from above orbital plane
View from above satellite
View from above satellite

Ground track
Ground track

The orbit data is extracted from the following two-line orbital elements,

1 11574U 79089B   17292.22466375  .00000066  00000-0  28904-4 0  9996
2 11574  74.0710 350.0928 0016728 226.7398 133.2362 14.40645407995005
Epoch (UTC): 19 October 2017 05:23:30
Eccentricity: 0.0016728
inclination: 74.0710°
perigee height: 744 km
apogee height: 768 km
right ascension of ascending node: 350.0928°
argument of perigee: 226.7398°
revolutions per day: 14.40645407
mean anomaly at epoch: 133.2362°
orbit number at epoch: 99500

The dashed part of the orbit path shows where the satellite is in the earth's shadow,  

DLR